Date String (YYYY-MM-DD hh:mm:ss) UTC,Instrument flags,Ambient pressure (hPa),Sample flow (lpm),Bypass flow (lpm),Sample temperature (°C),Ambient temperature (°C),ASC tube jacket temperature (°C),LED temperature (°C),Box temperature (°C),Sample RH (%),Span deviation,Mass concentration (μg/m³),Mass concentration (μg/m³),Mass concentration (μg/m³)
DateTimeUTC,F1_M11,P_M11,Q1_M11,Q2_M11,T1_M11,T2_M11,T3_M11,T4_M11,T5_M11,U1_M11,ZSPAN_M11,X0_M11,X2_M11,X1_M11
2022-05-27 12:00:00,,0825.5,4.99,0.00,30.0,29.0,00.0,38.9,31.8,10.7,0000.0,0007.81,0002.73,0001.91
2022-05-27 12:01:00,,0825.6,5.00,0.00,30.0,29.0,00.0,38.9,31.8,10.7,0000.0,0007.96,0002.78,0001.93
2022-05-27 12:02:00,,0825.5,5.00,0.00,30.0,29.0,00.0,38.9,31.8,10.7,0000.0,0007.61,0002.76,0001.91
2022-05-27 12:03:00,,0825.5,5.00,0.00,30.0,29.0,00.0,38.9,31.8,10.7,0000.0,0008.06,0002.76,0001.91
2022-05-27 12:04:00,,0825.5,5.00,0.00,30.0,29.0,00.0,38.9,31.8,10.7,0000.0,0008.92,0002.79,0001.92
2022-05-27 12:05:00,,0825.5,5.01,0.00,30.0,29.0,00.0,38.9,31.8,10.7,0000.0,0009.22,0002.80,0001.92
2022-05-27 12:06:00,,0825.5,4.99,0.00,30.0,29.0,00.0,38.9,31.8,10.7,0000.0,0009.25,0002.77,0001.91
2022-05-27 12:07:00,,0825.6,5.01,0.00,30.0,29.0,00.0,38.9,31.9,10.6,0000.0,0008.97,0002.71,0001.89
2022-05-27 12:08:00,,0825.5,5.00,0.00,30.0,29.0,00.0,38.9,31.9,10.5,0000.0,0008.87,0002.70,0001.88
2022-05-27 12:09:00,,0825.6,5.00,0.00,30.0,29.0,00.0,38.9,31.9,10.5,0000.0,0008.89,0002.72,0001.88
2022-05-27 12:10:00,,0825.6,5.01,0.00,30.0,29.0,00.0,38.9,31.9,10.4,0000.0,0008.92,0002.75,0001.89
2022-05-27 12:11:00,,0825.5,4.98,0.00,30.0,29.0,00.0,38.9,31.9,10.4,0000.0,0008.10,0002.79,0001.89
2022-05-27 12:12:00,,0825.5,4.99,0.00,30.1,29.0,00.0,38.9,31.9,10.4,0000.0,0008.01,0002.81,0001.89
2022-05-27 12:13:00,,0825.5,5.01,0.00,30.1,29.1,00.0,39.0,31.9,10.4,0000.0,0008.18,0002.86,0001.91
2022-05-27 12:14:00,,0825.5,5.00,0.00,30.1,29.1,00.0,39.0,31.9,10.4,0000.0,0007.78,0002.85,0001.91
2022-05-27 12:15:00,,0825.6,4.99,0.00,30.1,29.1,00.0,39.0,31.9,10.4,0000.0,0006.82,0002.84,0001.91
2022-05-27 12:16:00,,0825.5,5.00,0.00,30.1,29.1,00.0,39.0,31.9,10.3,0000.0,0006.32,0002.85,0001.90
2022-05-27 12:17:00,,0825.5,5.00,0.00,30.1,29.1,00.0,39.0,31.9,10.3,0000.0,0005.92,0002.89,0001.91
2022-05-27 12:18:00,,0825.5,5.01,0.00,30.1,29.1,00.0,39.0,31.9,10.3,0000.0,0006.65,0002.88,0001.93
2022-05-27 12:19:00,,0825.5,5.00,0.00,30.1,29.1,00.0,39.0,31.9,10.3,0000.0,0006.80,0002.86,0001.93
2022-05-27 12:20:00,,0825.5,5.00,0.00,30.1,29.1,00.0,39.0,31.9,10.3,0000.0,0006.72,0002.86,0001.94
2022-05-27 12:21:00,,0825.5,5.01,0.00,30.1,29.1,00.0,39.0,31.9,10.8,0000.0,0006.47,0002.83,0001.94
2022-05-27 12:22:00,,0825.6,5.01,0.00,30.1,29.1,00.0,39.0,32.0,11.4,0000.0,0006.13,0002.75,0001.94
2022-05-27 12:23:00,,0825.5,4.98,0.00,30.1,29.1,00.0,39.0,31.9,11.6,0000.0,0006.11,0002.77,0001.94
2022-05-27 12:24:00,,0825.6,5.01,0.00,30.1,29.1,00.0,39.0,32.0,11.7,0000.0,0005.88,0002.77,0001.93
2022-05-27 12:25:00,,0825.6,5.01,0.00,30.1,29.1,00.0,39.0,32.0,11.8,0000.0,0007.06,0002.78,0001.93
2022-05-27 12:26:00,,0825.6,5.01,0.00,30.1,29.1,00.0,39.0,32.0,13.3,0000.0,0007.53,0002.80,0001.93
2022-05-27 12:27:00,,0825.6,5.00,0.00,30.2,29.1,00.0,39.0,32.0,12.9,0000.0,0007.86,0002.79,0001.93
2022-05-27 12:28:00,,0825.6,4.99,0.00,30.2,29.1,00.0,39.0,32.0,12.6,0000.0,0007.89,0002.78,0001.92
2022-05-27 12:29:00,,0825.6,5.00,0.00,30.2,29.2,00.0,39.0,32.0,12.5,0000.0,0007.57,0002.79,0001.91
2022-05-27 12:30:00,,0825.5,5.01,0.00,30.2,29.2,00.0,39.1,32.0,12.2,0000.0,0007.54,0002.82,0001.91
2022-05-27 12:31:00,,0825.5,5.00,0.00,30.2,29.2,00.0,39.1,32.0,11.9,0000.0,0007.45,0002.78,0001.90
2022-05-27 12:32:00,,0825.5,4.99,0.00,30.2,29.2,00.0,39.1,32.0,11.8,0000.0,0007.50,0002.81,0001.89
2022-05-27 12:33:00,,0825.5,4.99,0.00,30.2,29.2,00.0,39.1,32.0,11.7,0000.0,0007.59,0002.84,0001.89
2022-05-27 12:34:00,,0825.6,5.01,0.00,30.2,29.2,00.0,39.1,32.0,11.6,0000.0,0007.51,0002.79,0001.89
2022-05-27 12:35:00,,0825.5,4.99,0.00,30.2,29.2,00.0,39.1,32.0,11.6,0000.0,0007.54,0002.82,0001.89
2022-05-27 12:36:00,,0825.6,4.99,0.00,30.2,29.2,00.0,39.1,32.0,11.3,0000.0,0006.48,0002.86,0001.89
2022-05-27 12:37:00,,0825.5,5.02,0.00,30.2,29.2,00.0,39.1,32.0,11.4,0000.0,0005.91,0002.84,0001.88
2022-05-27 12:38:00,,0825.6,5.00,0.00,30.2,29.2,00.0,39.1,32.0,12.4,0000.0,0005.15,0002.81,0001.88
2022-05-27 12:39:00,,0825.6,4.99,0.00,30.2,29.2,00.0,39.1,32.0,11.8,0000.0,0005.03,0002.83,0001.89
2022-05-27 12:40:00,,0825.6,4.98,0.00,30.2,29.2,00.0,39.1,32.0,11.9,0000.0,0004.94,0002.84,0001.92
2022-05-27 12:41:00,,0825.6,5.01,0.00,30.2,29.2,00.0,39.1,32.0,13.0,0000.0,0004.92,0002.85,0001.93
2022-05-27 12:42:00,,0825.6,5.01,0.00,30.2,29.2,00.0,39.1,32.0,13.0,0000.0,0005.17,0002.89,0001.92
2022-05-27 12:43:00,,0825.6,4.98,0.00,30.2,29.2,00.0,39.1,32.0,12.5,0000.0,0005.21,0002.89,0001.93
2022-05-27 12:44:00,,0825.6,5.00,0.00,30.2,29.2,00.0,39.1,32.0,12.5,0000.0,0005.01,0002.83,0001.93
2022-05-27 12:45:00,,0825.6,5.01,0.00,30.2,29.2,00.0,39.1,32.0,12.4,0000.0,0004.89,0002.79,0001.92
2022-05-27 12:46:00,,0825.6,4.99,0.00,30.2,29.2,00.0,39.1,32.0,12.5,0000.0,0004.94,0002.81,0001.92
2022-05-27 12:47:00,,0825.5,4.99,0.00,30.2,29.2,00.0,39.1,32.0,12.6,0000.0,0004.73,0002.72,0001.92
2022-05-27 12:48:00,,0825.6,5.02,0.00,30.2,29.2,00.0,39.1,32.0,12.2,0000.0,0004.61,0002.68,0001.91
2022-05-27 12:49:00,,0825.6,5.01,0.00,30.2,29.2,00.0,39.1,32.0,12.0,0000.0,0004.58,0002.67,0001.91
2022-05-27 12:50:00,,0825.6,5.01,0.00,30.2,29.2,00.0,39.1,32.0,11.9,0000.0,0004.60,0002.66,0001.91
2022-05-27 12:51:00,,0825.6,5.01,0.00,30.2,29.1,00.0,39.1,32.0,11.8,0000.0,0004.76,0002.65,0001.90
2022-05-27 12:52:00,,0825.5,4.99,0.00,30.3,29.1,00.0,39.2,32.0,11.9,0000.0,0004.81,0002.64,0001.90
2022-05-27 12:53:00,,0825.5,5.01,0.00,30.2,29.2,00.0,39.2,32.0,11.9,0000.0,0004.61,0002.65,0001.92
2022-05-27 12:54:00,,0825.6,5.01,0.00,30.2,29.1,00.0,39.2,32.0,11.9,0000.0,0004.77,0002.69,0001.91
2022-05-27 12:55:00,,0825.5,4.99,0.00,30.2,29.1,00.0,39.1,32.0,11.8,0000.0,0004.92,0002.73,0001.91
2022-05-27 12:56:00,,0825.6,5.00,0.00,30.3,29.1,00.0,39.1,32.0,11.8,0000.0,0005.21,0002.74,0001.92
2022-05-27 12:57:00,,0825.6,5.00,0.00,30.3,29.1,00.0,39.2,32.0,11.8,0000.0,0005.43,0002.78,0001.93
2022-05-27 12:58:00,,0825.6,4.99,0.00,30.3,29.1,00.0,39.2,32.0,12.1,0000.0,0005.63,0002.85,0001.95
2022-05-27 12:59:00,,0825.5,5.01,0.00,30.3,29.1,00.0,39.2,32.0,12.1,0000.0,0005.58,0002.87,0001.97
